Regional Weather Roundup
Issued by NWS San Angelo, TX

Current Version | Previous Version | Text Only | Print | Product List | Glossary On
Versions: 1 2 3 4 5 6 7 8 9 10 11 12 13 14 15 16 17 18 19 20 21 22 23 24 25 26 27 28 29 30 31 32 33 34 35 36 37 38 39 40 41 42 43 44 45 46 47 48 49 50
000
ASUS44 KSJT 240810
RWRSJT
WEST CENTRAL TEXAS REGIONAL WEATHER ROUNDUP
NATIONAL WEATHER SERVICE SAN ANGELO TX
300 AM CDT FRI OCT 24 2014

NOTE: "FAIR" INDICATES FEW OR NO CLOUDS BELOW 12,000 FEET WITH NO
SIGNIFICANT WEATHER AND/OR OBSTRUCTIONS TO VISIBILITY.

TXZ049-054-064>066-071>073-076>078-098-099-113-114-127-128-139-140-
154-155-168>170-240900
...LOCATIONS ACROSS WEST CENTRAL TEXAS...

CITY           SKY/WX    TMP DP  RH WIND       PRES   REMARKS
SAN ANGELO     CLEAR     57  56  96 SW6       30.13S
ABILENE        CLEAR     64  59  83 S6        30.11F
DYESS AFB      CLEAR     66  60  81 S9        30.10S
JUNCTION       CLEAR     57  55  93 CALM      30.14F
SWEETWATER     CLEAR     62  61  97 S9        30.16S
BROWNWOOD      MOCLDY    63  59  88 CALM      30.13S
COLEMAN        SUNNY     63  60  91 SW3       30.13S
SONORA         CLEAR     54  54 100 CALM      30.19F FOG
OZONA          FOG       54  52  94 CALM      30.19R VSB 1/4
BRADY          CLEAR     63  59  88 SW3       30.13S
$$

TEXAS PANHANDLE/OKLAHOMA PANHANDLE

CITY           SKY/WX    TMP DP  RH WIND       PRES   REMARKS
AMARILLO       CLEAR     55  54  96 SW9       30.13S FOG
BORGER         CLEAR     60  55  83 S5        30.11S
CANADIAN       CLEAR     59  58  96 CALM      30.09F
DALHART        CLEAR     50  45  83 NW3       30.15F
DUMAS          SUNNY     51  49  93 CALM      30.13S
GUYMON         NOT AVBL
HEREFORD       SUNNY     51  47  88 CALM      30.16S
PAMPA          SUNNY     56  55  96 S6        30.12F FOG
PERRYTON       CLEAR     55  53  94 S5        30.10S
$$

SOUTHERN PANHANDLE/SOUTH PLAINS/ROLLING PLAINS

CITY           SKY/WX    TMP DP  RH WIND       PRES   REMARKS
LUBBOCK        CLEAR     57  55  93 W8        30.14S FOG
SNYDER         CLEAR     60  59  96 S6        30.14S
CHILDRESS      CLEAR     60  58  92 S7        30.10S
SEMINOLE       SUNNY     56  55  95 W7        30.17S
$$

PERMIAN BASIN

CITY           SKY/WX    TMP DP  RH WIND       PRES   REMARKS
MIDLAND        CLEAR     61  58  90 S6        30.14F
ODESSA         CLEAR     62  59  90 SW9       30.16S
WINK           CLEAR     62  32  32 SE8       30.12F
$$

FAR WEST/SOUTHWEST MOUNTAINS/TRANS PECOS

CITY           SKY/WX    TMP DP  RH WIND       PRES   REMARKS
ALPINE         SUNNY     56  53  92 SW8       30.29S
DRYDEN           N/A     63  62  97 N6        30.13S
EL PASO        CLEAR     59  53  80 E6        30.18S
FORT STOCKTON  CLEAR     60  58  92 S9        30.15S
GUADALUPE PASS CLEAR     60  50  69 SW8       30.28S
MARFA          CLEAR     52  50  93 N7        30.28S
PECOS          SUNNY     58  55  92 CALM      30.13S
$$

DALLAS/FORT WORTH METROPLEX

CITY           SKY/WX    TMP DP  RH WIND       PRES   REMARKS
DFW AIRPORT    PTCLDY    64  55  72 S7        30.11S
FTW MEACHAM    CLEAR     63  55  75 S7        30.10F
DAL-EXECUTIVE  MOCLDY    64  56  75 S6        30.11S
GRAND PRAIRIE  CLEAR     64  57  79 S3        30.13S
ADDISON        CLEAR     64  58  82 S7        30.13S
MESQUITE       SUNNY     58  55  89 SE3       30.12S
LANCASTER      SUNNY     58  54  86 CALM      30.13S
$$

NORTH CENTRAL TEXAS

CITY           SKY/WX    TMP DP  RH WIND       PRES   REMARKS
SHRMAN/DENISON SUNNY     61  57  85 SE6       30.13R
GAINESVILLE    CLEAR     58  55  89 S5        30.13S
BRIDGEPORT     SUNNY     58  58 100 CALM      30.12F
DENTON         CLEAR     60  56  86 S5        30.11S
WAXAHACHIE     CLOUDY    61  56  85 CALM      30.13S
GRANBURY       SUNNY     64  57  77 SE5       30.12S
$$

WESTERN NORTH TEXAS

CITY           SKY/WX    TMP DP  RH WIND       PRES   REMARKS
WICHITA FALLS  CLEAR     63  58  83 S8        30.08S
VERNON         SUNNY     63  57  82 CALM      30.09R
BRECKENRIDGE   SUNNY     66  59  76 S6        30.10R HAZE
COMANCHE       CLEAR     61  59  92 S3        30.12F
$$

CENTRAL AND SOUTH CENTRAL TEXAS

CITY           SKY/WX    TMP DP  RH WIND       PRES   REMARKS
AUSTIN/BERGSTM CLEAR     57  56  96 CALM      30.12S
WACO           MOCLDY    65  55  70 S12       30.12S
HILLSBORO      PTSUNNY   64  55  72 SE6       30.13S
TEMPLE         CLEAR     61  52  72 SE6       30.12S
KILLEEN-GRAY   CLEAR     62  56  79 S6        30.13S
FORT HOOD      CLEAR     65  56  72 SE3       30.13S
GEORGETOWN     CLEAR     61  54  77 CALM      30.13S
LAGO VISTA     FAIR      66  56  68 S5        30.14F
SAN MARCOS     CLEAR     61  52  72 N3        30.14S
NEW BRAUNFELS  CLEAR     63  58  83 CALM      30.11S
RANDOLPH AFB   CLEAR     62  56  82 N5        30.13R
SAN ANTONIO    CLEAR     65  58  78 NW3       30.13S
STINSON        CLEAR     62  56  80 CALM      30.11S
PLEASANTON     NOT AVBL
LA GRANGE      CLEAR     60  57  90 CALM      30.11S
GIDDINGS       PTSUNNY   58  55  89 CALM      30.16F
$$

EAST TEXAS

CITY           SKY/WX    TMP DP  RH WIND       PRES   REMARKS
PARIS          CLEAR     54  45  71 SE5       30.14S
CLARKSVILLE    NOT AVBL
TYLER          CLEAR     57  53  86 S5        30.13S
LONGVIEW       CLEAR     53  50  89 E3        30.14R
PALESTINE      SUNNY     57  55  92 CALM      30.14F FOG
NACOGDOCHES    CLEAR     48  45  87 CALM      30.15R
$$

TEXAS HILL COUNTRY AND EDWARDS PLATEAU

CITY           SKY/WX    TMP DP  RH WIND       PRES   REMARKS
LLANO          NOT AVBL
HORSESHOE BAY  FAIR      59  57  91 CALM      30.13S
KERRVILLE      CLEAR     57  56  94 CALM      30.16S
FREDERICKSBRG  CLEAR     57  56  94 CALM      30.16S
ROCKSPRINGS    SUNNY     63  59  88 S5        30.18S
HONDO          CLEAR     56  56 100 NE7       30.15R
UVALDE         SUNNY     62  59  90 E6        30.13S
DEL RIO        CLEAR     66  62  87 NE7       30.10S
$$

SOUTHEAST TEXAS

CITY           SKY/WX    TMP DP  RH WIND       PRES   REMARKS
COLLEGE STN    CLEAR     62  53  72 E5        30.13S
CALDWELL       SUNNY     61  55  82 CALM      30.16S
CROCKETT       SUNNY     54  54 100 CALM      30.16F
BRENHAM        CLEAR     58  55  89 CALM      30.13F
HUNTSVILLE     CLEAR     53  51  93 CALM      30.13S
CONROE         CLEAR     53  52  96 CALM      30.13F
HOUSTON BUSH   CLEAR     57  54  89 NE3       30.12S
HOUSTON HOBBY  CLEAR     61  55  81 NE6       30.12R
PERLAND        CLEAR     61  55  81 NE6       30.13R
WHARTON        SUNNY     56  54  91 N3        30.12S
$$

THE UPPER TEXAS COAST

CITY           SKY/WX    TMP DP  RH WIND       PRES   REMARKS
ORANGE         SUNNY     53  53 100 NW3       30.14R
PORT ARTHUR    CLEAR     55  52  89 N7        30.11S
GALVESTON      CLEAR     66  62  87 N9        30.11S
ANGLETON       CLEAR     55  55 100 N5        30.10S
BAY CITY         N/A     60  58  94 CALM      30.10S
$$

TEXAS COASTAL BEND, RIO GRANDE PLAINS DEEP SOUTH TEXAS

CITY           SKY/WX    TMP DP  RH WIND       PRES   REMARKS
VICTORIA       CLEAR     60  55  83 NE5       30.11R
BEEVILLE       FAIR      62  60  92 CALM      30.10S
ROCKPORT       CLEAR     69  65  86 NE5       30.09R
PORT ARANSAS   SUNNY     72  63  73 E3        30.08S
PORT LAVACA    SUNNY     64  58  83 E5        30.10S
CORPUS CHRISTI PTCLDY    66  63  90 W3        30.09R
KINGSVILLE NAS CLEAR     64  63  96 CALM      30.09S
COTULLA        CLEAR     68  59  73 SE3       30.11S
LAREDO         CLEAR     67  61  81 S5        30.13S
BROWNSVILLE    CLEAR     67  65  93 NW3       30.06F
PORT ISABEL    CLEAR     70  67  90 NW5       30.06F
HEBBRONVILLE   SUNNY     63  60  90 CALM      30.11F
MCALLEN        CLEAR     68  66  93 CALM      30.09S
WESLACO        CLEAR     66  63  91 CALM      30.07F
FALFURRIAS     SUNNY     63  61  94 CALM      30.09S
EDINBURG       SUNNY     66  63  91 E3        30.09S FOG
$$



USA.gov is the U.S. government's official web portal to all federal, state and local government web resources and services.